Location: Julian California
(33.0790°N, 116.6010°W)
Time: 05:38:11
(UTC-07:00)

MetOp-A - Pass Details

Date: 19 May 2017
Orbit: 818 x 822 km, 98.7° (Epoch: 22 July)

Event Time Altitude Azimuth Distance (km) Brightness Sun altitude
Exits shadow 21:50:32 50° 164° (SSE) 1,037 4.3 -22.8°
Maximum altitude 21:52:01 89° 77° (ENE) 824 4.0 -23.0°
Drops below altitude 10° 21:57:23 10° 348° (NNW) 2,419 7.4 -23.8°
Sets 21:59:44 0° 348° (NNW) 3,356 8.3 -24.1°
